Regional Weather Roundup
Issued by NWS

Home | Current Version | Previous Version | Graphics & Text | Print | Product List | Glossary On
Versions: 1 2 3 4 5 6 7 8 9 10 11 12 13 14 15 16 17 18 19 20 21 22 23 24 25 26 27 28 29 30 31 32 33 34 35 36 37 38 39 40 41 42 43 44 45 46 47 48 49 50
000
ASUS43 KOAX 261810
RWRNE

WEATHER ROUNDUP FOR NEBRASKA
NATIONAL WEATHER SERVICE OMAHA NE
1200 PM CST FRI DEC 26 2014

NOTES: SATELLITE DATA IS BEING USED TO AUGMENT CLOUD COVER ABOVE
       12000 FEET.
       "FAIR" INDICATES FEW OR NO CLOUDS BELOW 12,000 FEET WITH NO
       SIGNIFICANT WEATHER AND/OR OBSTRUCTIONS TO VISIBILITY.

  * THESE STATIONS DO NOT REPORT WEATHER SUCH AS RAIN...SNOW OR FOG.

NEZ001>004-019>022-054>056-261900-
NEBRASKA PANHANDLE

CITY           SKY/WX    TMP DP  RH WIND       PRES   REMARKS
SCOTTSBLUFF    LGT SNOW  20  16  84 NE5       30.05F VSB 3/4 WCI  13
6HR MIN TEMP:  17; 6HR MAX TEMP:  21; 6HR PCP:  0.01;

ALLIANCE       CLOUDY    18  14  84 NE16      30.03F WCI   3
6HR MIN TEMP:  16; 6HR MAX TEMP:  18;

CHADRON        CLOUDY    21  16  81 NE8       30.09F WCI  11
6HR MIN TEMP:  19; 6HR MAX TEMP:  21; 6HR PCP: TRACE;

KIMBALL        LGT SNOW  17  13  84 N9        29.96F WCI   5
SIDNEY         LGT SNOW  18  13  80 N12       30.01S WCI   5
6HR MIN TEMP:  17; 6HR MAX TEMP:  18; 6HR PCP: TRACE;

$$

NEZ057>060-069>072-079>082-261900-
SOUTHWEST NEBRASKA

CITY           SKY/WX    TMP DP  RH WIND       PRES   REMARKS
NORTH PLATTE   LGT SNOW  24  19  81 N14       30.05R VSB 1   WCI  12
6HR MIN TEMP:  23; 6HR MAX TEMP:  24; 6HR PCP:  0.04;

IMPERIAL       SNOW      22  18  85 N15       30.02F VSB 1/2 WCI   9
6HR MIN TEMP:  22; 6HR MAX TEMP:  23; 6HR PCP:  0.01;

LEXINGTON      CLOUDY    28  21  76 N16       30.03F WCI  15
MCCOOK         CLOUDY    26  20  77 N18       30.02F WCI  13
6HR MIN TEMP:  25; 6HR MAX TEMP:  27; 6HR PCP: TRACE;

OGALLALA       LGT SNOW  22  19  85 N13       30.03F WCI  10
$$

NEZ005>010-023>029-035>040-094-261900-
NORTH CENTRAL NEBRASKA

CITY           SKY/WX    TMP DP  RH WIND       PRES   REMARKS
VALENTINE      LGT SNOW  22  18  85 N12       30.09S FOG     WCI  10
6HR MIN TEMP:  21; 6HR MAX TEMP:  23; 6HR PCP: TRACE;

AINSWORTH      CLOUDY    23  20  88 N16       30.06F WCI  10
BROKEN BOW     CLOUDY    26  20  77 N15G25    30.02R WCI  14
6HR MIN TEMP:  25; 6HR MAX TEMP:  27; 6HR PCP: TRACE;

O`NEILL        FLURRIES  25  23  93 N13       30.04F WCI  13
ORD            CLOUDY    26  20  77 N15       30.03S WCI  14
6HR MIN TEMP:  25; 6HR MAX TEMP:  27;

THEDFORD       CLOUDY    23  20  87 N17G24    30.04F WCI  10
$$

NEZ041-046>049-061>064-073>077-083>087-261900-
SOUTH CENTRAL NEBRASKA

CITY           SKY/WX    TMP DP  RH WIND       PRES   REMARKS
GRAND ISLAND   CLOUDY    28  22  78 N15G25    30.02F WCI  16
6HR MIN TEMP:  27; 6HR MAX TEMP:  28;

AURORA         CLOUDY    29  25  84 N17       30.01S WCI  17
HASTINGS       CLOUDY    28  22  78 N16       30.01R WCI  16
6HR MIN TEMP:  27; 6HR MAX TEMP:  28;

HEBRON         CLOUDY    31  27  84 N13       29.98F WCI  21
HOLDREGE       CLOUDY    27  22  80 N16G25    30.00F WCI  15
KEARNEY *      CLOUDY    28  19  69 NW22      30.00F WCI  15
YORK           CLOUDY    28  27  93 N22G28    29.99F WCI  15
$$

NEZ011>018-030>034-042>045-261900-
NORTHEAST NEBRASKA

CITY           SKY/WX    TMP DP  RH WIND       PRES   REMARKS
NORFOLK        CLOUDY    29  24  82 N20G28    29.99F WCI  16
6HR MIN TEMP:  28; 6HR MAX TEMP:  29;

ALBION         CLOUDY    29  22  75 N16G22    30.01F WCI  17
BLAIR          CLOUDY    32  30  90 N12G20    29.97S WCI  23
COLUMBUS *     CLOUDY    28  21  74 N14       30.01F WCI  17
FREMONT        CLOUDY    33  29  88 N8G16     30.01R WCI  25
TEKAMAH        CLOUDY    33  29  85 N16G25    29.99F WCI  23
6HR MIN TEMP:  33; 6HR MAX TEMP:  34;

WAYNE          CLOUDY    29  26  87 N18       30.01F WCI  17
$$

NEZ050>053-065>068-078-088>093-261900-
SOUTHEAST NEBRASKA

CITY           SKY/WX    TMP DP  RH WIND       PRES   REMARKS
LINCOLN        CLOUDY    32  28  85 N16       30.01F WCI  21
6HR MIN TEMP:  32; 6HR MAX TEMP:  33;

OMAHA EPPLEY   CLOUDY    33  31  92 N13       30.01S WCI  24
6HR MIN TEMP:  33; 6HR MAX TEMP:  34;

BEATRICE       CLOUDY    32  30  91 N12       29.96F WCI  23
FALLS CITY     CLOUDY    35  31  85 NE12      29.96F WCI  27
6HR MIN TEMP:  31; 6HR MAX TEMP:  35;

NEBRASKA CITY  CLOUDY    35  33  94 N16       29.96F FOG     WCI  25
PLATTSMOUTH    CLOUDY    33  31  91 N9        29.98R FOG     WCI  25
$$

NEZ044-045-051>053-067-261900-
OMAHA AREA

CITY           SKY/WX    TMP DP  RH WIND       PRES   REMARKS
OMAHA EPPLEY   CLOUDY    33  31  92 N13       30.01S WCI  24
6HR MIN TEMP:  33; 6HR MAX TEMP:  34;

BLAIR          CLOUDY    32  30  90 N12G20    29.97S WCI  23
FREMONT        CLOUDY    33  29  88 N8G16     30.01R WCI  25
MILLARD        CLOUDY    33  30  88 N5        30.00R WCI  29
OFFUTT AFB     CLOUDY    34  31  88 N8        29.99R WCI  27
PLATTSMOUTH    CLOUDY    33  31  91 N9        29.98R FOG     WCI  25
WAHOO          CLOUDY    32  28  84 N14G21    30.00S WCI  22
$$



USA.gov is the U.S. government's official web portal to all federal, state and local government web resources and services.